[[{"header":{"parameterUnit":"m.s-1","parameterCategory":1,"la1":30.2991,"la2":30.254,"lo1":-89.0895,"lo2":-89.0444,"dy":0.0017,"dx":0.0017,"nx":28,"ny":28,"refTime":"2025-02-07T09:00:00:Z","depth":0,"parameterNumber":2,"parameterNumberName":"U-component_of_WINDS"},"data":[0,0,0,0,0,0,0,0,0,0,0,0,0,0,0,0,0,0,0,0,0,0,0,0,0,0,0,0,0,0,0,0,0,0,0,0,0,0,0,0,0,0,0,0,0,0,0,0,0,0,0,0,0,0,0,0,0,0,-0.9117,-0.9117,0,-0.9173,-0.9174,-0.9174,-0.9203,-0.9203,-0.9203,-0.9203,-0.9261,-0.9263,-0.9264,0,0,0,0,0,0,0,0,0,0,0,0,0,-0.9035,-0.9036,-0.9117,-0.9117,-0.9118,-0.9173,-0.9174,-0.9174,-0.9203,-0.9203,-0.9203,-0.9203,-0.9261,-0.9263,-0.9265,0,0,0,0,0,0,0,0,0,0,0,0,0,-0.9079,-0.9037,-0.9117,-0.9139,-0.9142,-0.9173,-0.9174,-0.9175,-0.9203,-0.9203,-0.9203,-0.9203,-0.926,-0.9263,-0.9265,-0.9278,0,0,-0.9272,-0.9273,0,0,0,0,0,0,0,0,-0.9076,-0.9082,-0.9135,-0.9137,-0.914,-0.9181,-0.9166,-0.9209,-0.9203,-0.918,-0.9203,-0.9203,-0.9235,-0.9239,-0.925,-0.9281,-0.9284,-0.9272,-0.9273,-0.9274,-0.9275,0,0,0,0,0,0,0,-0.9073,-0.908,-0.9139,-0.9136,-0.9139,-0.9147,-0.9153,-0.9175,-0.9206,-0.9182,-0.9184,-0.919,-0.9236,-0.9247,-0.9251,-0.9284,-0.9272,-0.9274,-0.9275,-0.9276,-0.933,-0.933,0,0,0,0,0,0,-0.9066,-0.9077,-0.9137,-0.9141,-0.9108,-0.9148,-0.9155,-0.9168,-0.9206,-0.9212,-0.919,-0.9191,-0.9243,-0.9248,-0.9253,-0.9272,-0.9274,-0.9277,-0.9278,-0.933,-0.933,-0.933,0,0,0,0,0,0,-0.9065,-0.9072,-0.9135,-0.9109,-0.9118,-0.9149,-0.9164,-0.9169,-0.918,-0.9212,-0.9218,-0.9195,-0.9244,-0.925,-0.9272,-0.9274,-0.9278,-0.928,-0.933,-0.933,-0.933,-0.9308,0,0,0,0,0,0,-0.9062,-0.9071,-0.9076,-0.9109,-0.9119,-0.9152,-0.9164,-0.917,-0.9184,-0.9186,-0.9219,-0.9225,-0.9244,-0.9268,-0.9274,-0.9277,-0.9282,-0.933,-0.933,-0.933,-0.9309,-0.9308,-0.9307,0,0,0,0,0,-0.9059,-0.9068,-0.9076,-0.9083,-0.9126,-0.9152,-0.9158,-0.918,-0.9184,-0.919,-0.921,-0.9224,-0.9273,-0.927,-0.9277,-0.9281,-0.933,-0.933,-0.933,-0.931,-0.9308,-0.9307,0,0,0,0,0,0,-0.9035,-0.9073,-0.9082,-0.9102,-0.9124,-0.9157,-0.9165,-0.9178,-0.9199,-0.92,-0.9227,-0.9234,-0.9253,-0.9269,-0.9266,-0.9296,-0.9303,-0.9304,-0.9285,-0.9284,-0.9282,-0.9278,-0.9283,0,0,0,0,0,-0.9031,-0.9049,-0.9081,-0.9096,-0.9106,-0.9133,-0.9146,-0.9161,-0.9184,-0.9194,-0.9216,-0.9239,-0.9259,-0.9272,-0.9293,-0.9312,-0.9319,-0.9318,-0.9316,-0.9315,-0.9316,-0.9327,-0.9327,-0.933,-0.933,-0.933,0,0,-0.9025,-0.9048,-0.9058,-0.9091,-0.911,-0.9128,-0.9141,-0.9159,-0.9173,-0.9197,-0.9218,-0.9235,-0.9263,-0.9283,-0.9293,-0.9297,-0.9317,-0.9315,-0.9314,-0.9316,-0.9327,-0.9327,-0.9327,-0.933,-0.933,-0.933,0,0,-0.9023,-0.9042,-0.9056,-0.9074,-0.9102,-0.912,-0.9123,-0.9155,-0.9167,-0.9189,-0.9207,-0.9224,-0.9259,-0.9277,-0.9291,-0.9296,-0.9309,-0.9302,-0.9295,-0.9306,-0.9305,-0.9305,-0.9307,-0.9307,-0.9303,-0.9303,-0.9303,0,-0.9011,-0.9039,-0.9061,-0.9078,-0.9093,-0.9115,-0.9129,-0.9146,-0.9179,-0.9189,-0.9193,-0.9237,-0.9257,-0.9281,-0.9282,-0.9293,-0.9298,-0.9298,-0.9304,-0.9304,-0.9304,-0.9306,-0.9306,-0.9302,-0.9302,-0.9302,-0.9302,0,-0.9023,-0.9042,-0.905,-0.9081,-0.9096,-0.9112,-0.9137,-0.915,-0.9164,-0.9182,-0.9204,-0.9228,-0.9255,-0.9262,-0.9275,-0.9288,-0.929,-0.9298,-0.9306,-0.9302,-0.9304,-0.9305,-0.93,-0.93,-0.9301,-0.9301,0,0,-0.9007,-0.905,-0.9053,-0.9067,-0.9099,-0.9114,-0.9131,-0.9156,-0.9167,-0.9189,-0.9204,-0.9233,-0.9241,-0.9257,-0.9273,-0.9282,-0.9284,-0.9289,-0.929,-0.9287,-0.93,-0.9293,-0.9294,-0.9292,-0.9293,-0.9293,-0.9298,0,-0.901,-0.904,-0.9061,-0.9084,-0.9101,-0.9122,-0.9137,-0.9158,-0.9175,-0.9193,-0.9212,-0.9232,-0.9241,-0.9251,-0.9261,-0.9281,-0.9286,-0.9281,-0.9307,-0.9307,-0.9299,-0.9295,-0.9288,-0.9291,-0.9299,-0.9299,-0.9299,0,-0.9016,-0.9037,-0.9061,-0.9091,-0.9099,-0.9112,-0.9137,-0.9153,-0.9178,-0.919,-0.9207,-0.9224,-0.9243,-0.9248,-0.9274,-0.927,-0.9282,-0.9294,-0.9294,-0.9298,-0.9303,-0.9298,-0.9293,-0.9293,-0.93,-0.93,-0.93,0,-0.9002,-0.9036,-0.9055,-0.9067,-0.9102,-0.9111,-0.9126,-0.9151,-0.9164,-0.9186,-0.9196,-0.9219,-0.9232,-0.925,-0.9273,-0.9274,-0.9297,-0.9304,-0.9308,-0.9307,-0.9312,-0.9311,-0.9308,-0.9319,-0.9319,-0.9319,-0.9319,0,-0.9002,-0.9016,-0.9049,-0.9061,-0.9077,-0.9101,-0.9117,-0.9134,-0.9156,-0.9171,-0.9191,-0.9205,-0.9234,-0.9252,-0.9269,-0.9289,-0.9294,-0.9305,-0.9309,-0.9303,-0.9302,-0.9311,-0.9311,-0.9319,-0.9319,-0.9319,-0.9319,0,-0.8989,-0.9012,-0.9034,-0.9065,-0.9074,-0.9084,-0.9112,-0.9124,-0.9142,-0.9161,-0.9167,-0.9196,-0.9218,-0.9242,-0.9272,-0.9284,-0.9302,-0.9309,-0.9294,-0.9296,-0.9298,-0.9298,-0.9302,-0.9303,-0.9313,-0.9312,-0.9312,0,-0.8988,-0.8999,-0.9032,-0.9043,-0.9058,-0.9076,-0.909,-0.9114,-0.9128,-0.9157,-0.9166,-0.9189,-0.9209,-0.9244,-0.9267,-0.9291,-0.9298,-0.9297,-0.9301,-0.9295,-0.9298,-0.9297,-0.9298,-0.9296,-0.9296,-0.9296,-0.9296,0,-0.8983,-0.8994,-0.9013,-0.9036,-0.9052,-0.9071,-0.9091,-0.91,-0.9128,-0.9143,-0.9165,-0.9181,-0.9211,-0.9235,-0.9261,-0.9277,-0.9291,-0.9294,-0.9296,-0.929,-0.9281,-0.9286,-0.929,-0.9294,-0.9294,-0.9294,-0.9294,-0.9294,-0.8976,-0.8987,-0.9011,-0.9032,-0.905,-0.9068,-0.9081,-0.91,-0.9119,-0.9146,-0.9159,-0.9182,-0.9206,-0.9243,-0.9259,-0.9277,-0.9281,-0.9284,-0.9285,-0.9285,-0.9284,-0.9278,-0.9282,-0.9282,-0.9282,-0.9282,-0.9282,0,-0.8972,-0.8989,-0.9008,-0.9035,-0.9051,-0.9063,-0.9086,-0.9099,-0.9118,-0.914,-0.9159,-0.9185,-0.9207,-0.9233,-0.9257,-0.9266,-0.9274,-0.9272,-0.9272,-0.9275,-0.9278,-0.9274,-0.9266,-0.9266,-0.9266,-0.9266,-0.9266,-0.9266,-0.8972,-0.8991,-0.9004,-0.9032,-0.9049,-0.9071,-0.9083,-0.91,-0.9118,-0.9145,-0.9164,-0.918,-0.9204,-0.923,-0.9251,-0.9258,-0.9266,-0.9262,-0.9271,-0.9274,-0.9275,-0.9276,-0.9272,-0.9264,-0.9264,-0.9266,-0.9266,-0.9266]},{"header":{"parameterUnit":"m.s-1","parameterCategory":1,"la1":30.2991,"la2":30.254,"lo1":-89.0895,"lo2":-89.0444,"dy":0.0017,"dx":0.0017,"nx":28,"ny":28,"refTime":"2025-02-07T09:00:00:Z","depth":0,"parameterNumber":3,"parameterNumberName":"V-component_of_WINDS"},"data":[0,0,0,0,0,0,0,0,0,0,0,0,0,0,0,0,0,0,0,0,0,0,0,0,0,0,0,0,0,0,0,0,0,0,0,0,0,0,0,0,0,0,0,0,0,0,0,0,0,0,0,0,0,0,0,0,0,0,4.2843,4.2844,0,4.296,4.2961,4.2962,4.2971,4.2969,4.2968,4.2967,4.308,4.3084,4.3088,0,0,0,0,0,0,0,0,0,0,0,0,0,4.2622,4.2626,4.2843,4.2845,4.2846,4.296,4.2961,4.2963,4.2971,4.2969,4.2968,4.2966,4.3078,4.3083,4.3088,0,0,0,0,0,0,0,0,0,0,0,0,0,4.2726,4.2627,4.2843,4.2864,4.2867,4.2959,4.2961,4.2963,4.2971,4.2969,4.2967,4.2966,4.3077,4.3083,4.3089,4.3166,0,0,4.3108,4.3111,0,0,0,0,0,0,0,0,4.272,4.2734,4.2859,4.2863,4.2866,4.2949,4.2924,4.3031,4.2972,4.2932,4.2967,4.2965,4.3037,4.3047,4.3072,4.3171,4.3176,4.3109,4.3112,4.3115,4.3117,0,0,0,0,0,0,0,4.2713,4.2729,4.2889,4.2861,4.2865,4.2866,4.2878,4.2945,4.2993,4.2935,4.2936,4.295,4.3039,4.3066,4.3075,4.3178,4.3108,4.3114,4.3118,4.312,4.3346,4.3349,0,0,0,0,0,0,4.2702,4.2723,4.2885,4.2893,4.2787,4.2871,4.2885,4.2924,4.2993,4.3002,4.2951,4.295,4.3057,4.3068,4.3079,4.3176,4.3115,4.3121,4.3125,4.3344,4.3347,4.3349,0,0,0,0,0,0,4.2698,4.2717,4.2881,4.2808,4.2829,4.2877,4.2921,4.2928,4.2955,4.3005,4.3013,4.2971,4.3056,4.307,4.3145,4.3179,4.3124,4.3129,4.3342,4.3345,4.3348,4.3368,0,0,0,0,0,0,4.2691,4.2715,4.2746,4.2809,4.2833,4.2947,4.2923,4.2931,4.2967,4.2966,4.3026,4.3034,4.3055,4.3136,4.3151,4.3187,4.3134,4.3339,4.3343,4.3347,4.3364,4.3371,4.3378,0,0,0,0,0,4.2683,4.2745,4.2748,4.2767,4.2873,4.2949,4.2962,4.2987,4.297,4.3001,4.3033,4.3032,4.3173,4.3143,4.3161,4.3199,4.3337,4.3342,4.3347,4.3361,4.337,4.3377,0,0,0,0,0,0,4.2683,4.2754,4.2757,4.2842,4.289,4.295,4.299,4.2995,4.3047,4.3044,4.307,4.3083,4.3158,4.3185,4.3151,4.3278,4.3253,4.3261,4.3258,4.3266,4.3273,4.3265,4.314,0,0,0,0,0,4.2693,4.275,4.2808,4.2877,4.2901,4.2941,4.2975,4.299,4.304,4.3059,4.3097,4.3143,4.3198,4.3233,4.3286,4.3368,4.3381,4.3402,4.3409,4.3414,4.3422,4.3469,4.3479,4.3366,4.3366,4.3366,0,0,4.2713,4.2759,4.2793,4.2878,4.2917,4.2974,4.2958,4.3019,4.3062,4.3067,4.3142,4.3171,4.3224,4.3303,4.334,4.3328,4.3456,4.3421,4.3424,4.343,4.3475,4.3486,4.3495,4.3369,4.3369,4.3368,0,0,4.2781,4.2821,4.2884,4.2924,4.2984,4.301,4.3025,4.3086,4.3106,4.3181,4.3188,4.3237,4.333,4.3369,4.3401,4.3484,4.3485,4.35,4.3535,4.358,4.3589,4.3597,4.3629,4.3639,4.3507,4.3507,4.3507,0,4.2799,4.2888,4.2915,4.2978,4.3015,4.3025,4.3088,4.3124,4.3197,4.3222,4.3208,4.3328,4.3364,4.3453,4.3474,4.3498,4.3516,4.3494,4.3586,4.3594,4.3602,4.3633,4.3644,4.3508,4.3508,4.3508,4.3508,0,4.2908,4.2969,4.3012,4.3086,4.3128,4.319,4.3225,4.3263,4.3275,4.3302,4.3379,4.3423,4.3486,4.3507,4.3518,4.3599,4.359,4.3581,4.3556,4.3614,4.3643,4.3655,4.3511,4.351,4.351,4.3509,0,0,4.2979,4.3068,4.3084,4.3118,4.3185,4.3232,4.3294,4.3359,4.3392,4.3441,4.3494,4.3573,4.3566,4.3602,4.3616,4.3656,4.3721,4.3642,4.3644,4.3657,4.3814,4.3823,4.3836,4.3722,4.3724,4.3726,4.3811,0,4.3056,4.3171,4.3197,4.3295,4.3352,4.3363,4.3417,4.3463,4.349,4.3541,4.357,4.3627,4.3612,4.3634,4.3673,4.3705,4.3753,4.3699,4.3771,4.3774,4.376,4.3851,4.3859,4.3937,4.3822,4.3824,4.3825,0,4.3162,4.3218,4.3322,4.3383,4.3408,4.3457,4.3518,4.3567,4.3619,4.3636,4.3677,4.3688,4.3752,4.3723,4.3811,4.3773,4.3804,4.3824,4.3827,4.3837,4.3804,4.3864,4.3962,4.3975,4.3843,4.3841,4.384,0,4.3207,4.3307,4.3383,4.3411,4.3484,4.3518,4.3549,4.36,4.3637,4.3689,4.3714,4.3772,4.3804,4.3848,4.3874,4.3851,4.3961,4.3934,4.3977,4.3977,4.4001,4.4,4.4108,4.4017,4.4017,4.4017,4.4017,0,4.3291,4.3355,4.3404,4.3451,4.3523,4.3551,4.362,4.3651,4.3696,4.3748,4.3759,4.3807,4.3837,4.3889,4.3909,4.398,4.3993,4.4009,4.4014,4.401,4.4008,4.4031,4.4028,4.402,4.4019,4.4019,4.4018,0,4.3354,4.339,4.3474,4.3536,4.3553,4.3603,4.3656,4.3701,4.3728,4.3794,4.3811,4.3853,4.3915,4.3945,4.402,4.4034,4.4115,4.4115,4.4099,4.4101,4.4144,4.414,4.4273,4.4292,4.4186,4.4187,4.4188,0,4.3407,4.3457,4.3526,4.3563,4.3596,4.3655,4.3694,4.3723,4.3763,4.3826,4.3864,4.3927,4.3979,4.4077,4.4113,4.4171,4.4174,4.4217,4.4183,4.4178,4.4178,4.4176,4.4181,4.4223,4.4224,4.4225,4.4226,0,4.3498,4.3514,4.3571,4.3635,4.3682,4.3733,4.3783,4.3811,4.3848,4.3892,4.3957,4.3998,4.4077,4.4139,4.42,4.423,4.4235,4.4236,4.4249,4.4247,4.4236,4.4245,4.4118,4.4233,4.4232,4.4232,4.4231,4.4231,4.3559,4.3605,4.3662,4.3725,4.3766,4.3813,4.386,4.3894,4.3949,4.4018,4.403,4.41,4.415,4.4233,4.4265,4.4319,4.4309,4.4328,4.4333,4.4338,4.4341,4.4226,4.4329,4.4329,4.4329,4.4329,4.4328,0,4.3653,4.369,4.3749,4.382,4.387,4.3871,4.3926,4.3968,4.403,4.4077,4.4129,4.4204,4.4265,4.4306,4.4368,4.4403,4.4406,4.4418,4.4417,4.4424,4.4345,4.4329,4.4414,4.4414,4.4414,4.4414,4.4414,4.4414,4.3708,4.3787,4.3809,4.3907,4.3943,4.4013,4.4045,4.4088,4.4127,4.4211,4.4263,4.429,4.4335,4.44,4.4456,4.4466,4.4489,4.4501,4.4512,4.4438,4.4429,4.4421,4.4405,4.4505,4.4506,4.4586,4.4587,4.4587]}]]